Regional Weather Roundup
Issued by NWS

Home | Current Version | Previous Version | Graphics & Text | Print | Product List | Glossary On
Versions: 1 2 3 4 5 6 7 8 9 10 11 12 13 14 15 16 17 18 19 20 21 22 23 24 25 26 27 28 29 30 31 32 33 34 35 36 37 38 39 40 41 42 43 44 45 46 47 48 49 50
000
ASUS43 KTOP 231259
RWRKS

WEATHER ROUNDUP FOR KANSAS
NATIONAL WEATHER SERVICE GOODLAND KS
800 AM CDT WED AUG 23 2017

NOTE:  "FAIR" INDICATES FEW OR NO CLOUDS BELOW 12,000 FEET WITH NO
SIGNIFICANT WEATHER AND/OR OBSTRUCTIONS TO VISIBILITY.

KSZ001>006-013>018-027>032-041>047-231400-
NORTHWEST KANSAS

CITY           SKY/WX    TMP DP  RH WIND       PRES   REMARKS
GOODLAND       CLEAR     55  48  77 S14       30.20S
HAYS           SUNNY     55  51  86 CALM      30.20S
HILL CITY      SUNNY     57  51  80 S3        30.21R
RUSSELL        SUNNY     57  51  80 S7        30.18S
$$

KSZ061>065-074>080-084>089-231400-
SOUTHWEST KANSAS

CITY           SKY/WX    TMP DP  RH WIND       PRES   REMARKS
DODGE CITY     SUNNY     57  50  77 S7        30.21R
ELKHART          N/A     62  64 100 SE7         N/A
GARDEN CITY    CLEAR     57  49  74 SE6       30.22R
GREAT BEND     SUNNY     56  52  86 CALM      30.20
LIBERAL        CLEAR     62  53  72 E8        30.22S
$$

KSZ066>073-081>083-090>101-231400-
SOUTHEAST KANSAS

CITY           SKY/WX    TMP DP  RH WIND       PRES   REMARKS
CHANUTE        SUNNY     63  54  72 NE7       30.16S
COFFEYVILLE    SUNNY     63  57  81 NE6       30.14R
HUTCHINSON     SUNNY     59  54  83 E6        30.18S
MEDICINE LODGE   N/A     59  54  83 CALM      30.17S
NEWTON         SUNNY     60  52  74 E6        30.19S
PARSONS        SUNNY     61  55  81 VRB5      30.16R
WICHITA INTL   MOSUNNY   64  54  69 NE8       30.17R
WICHITA JABRA  SUNNY     59  57  93 NE6       30.17S
WINFIELD       SUNNY     62  53  72 NE5       30.16S
$$

KSZ007>012-019>026-033>040-048>060-102>105-231400-
NORTHEAST KANSAS

CITY           SKY/WX    TMP DP  RH WIND       PRES   REMARKS
CONCORDIA      SUNNY     57  54  89 SE3       30.18S
EMPORIA        SUNNY     59  55  87 CALM      30.18R
LAWRENCE       MOSUNNY   58  57  97 CALM      30.17S
MANHATTAN      SUNNY     57  54  89 CALM      30.18R
OLATHE IND     SUNNY     61  58  90 CALM      30.18R
OLATHE EXE     SUNNY     62  56  80 CALM      30.17R
SALINA         SUNNY     59  52  77 CALM      30.19R
TOPEKA BILLARD MOSUNNY   59  58  96 CALM      30.17S
TOPEKA FORBES  MOSUNNY   60  57  89 CALM      30.17S
$$




USA.gov is the U.S. government's official web portal to all federal, state and local government web resources and services.